Wind_Speed
7 6 16 16 17 13 5 7 9 14 4 5 18 22 13 21 10 15 23 24 26 32 35 37 39 39 38 41 40 40 37 34 36 37 37 35 35 31 30 30 28 28 25 22
5 20 8 6 7 9 11 13 18 12 8 9 16 18 19 16 22 20 22 23 25 27 28 33 38 39 40 43 43 43 40 37 38 38 38 37 35 34 31 30 30 30 28 25
14 8 11 15 14 14 16 16 16 14 11 10 7 19 15 22 32 29 34 32 29 26 29 33 35 39 40 43 45 46 43 41 38 39 39 38 36 34 33 34 34 33 31 28
14 20 12 12 17 16 17 18 17 12 4 12 6 10 16 18 21 24 32 32 33 29 25 28 35 38 41 46 44 46 45 43 41 42 43 43 43 41 39 36 35 35 34 31
6 7 16 19 17 18 17 10 12 9 16 6 23 7 6 17 20 22 23 35 36 39 33 29 32 36 40 44 47 46 47 45 44 45 45 45 45 43 38 37 35 36 35 34
17 3 8 8 17 16 2 12 8 9 5 10 25 8 8 11 24 20 20 35 35 39 45 40 36 33 36 42 47 48 50 48 47 47 48 48 47 46 43 40 38 37 37 36
11 22 7 10 8 9 14 7 2 4 7 12 10 11 24 10 6 16 21 33 37 37 42 47 46 41 39 42 46 50 51 52 51 50 49 50 48 48 46 43 40 38 40 39
4 7 16 10 12 9 16 12 4 7 5 13 12 10 7 18 13 9 9 23 31 35 40 46 52 50 45 44 44 50 51 54 54 54 52 50 49 49 48 46 43 41 39 38
5 7 3 10 6 13 6 10 18 7 2 4 9 9 2 8 8 8 9 8 16 32 36 42 47 49 49 46 44 48 49 52 55 56 55 51 49 50 50 48 45 43 40 37
5 8 5 7 7 6 6 10 7 9 2 10 4 5 1 10 10 8 8 13 11 13 20 34 40 43 47 48 43 45 47 48 53 54 55 52 51 50 49 48 45 44 43 38
5 5 2 8 7 12 9 6 6 5 8 4 4 1 4 6 7 8 6 13 15 13 16 23 33 39 42 43 42 44 46 47 48 53 54 51 51 50 50 47 45 43 42 40
2 4 1 1 3 4 4 10 13 4 6 8 3 2 5 7 6 6 6 15 17 14 5 10 20 25 32 37 38 40 41 45 47 46 50 50 49 49 48 46 42 40 40 39
6 3 3 1 2 5 3 4 5 6 5 2 3 3 4 6 8 14 13 22 25 25 23 16 4 4 18 25 31 35 36 40 44 46 45 45 47 50 47 43 39 38 38 41
12 2 5 2 2 2 3 2 6 8 3 2 3 8 4 9 11 14 20 27 27 31 29 28 26 17 5 8 20 26 30 33 36 39 41 43 45 44 40 37 37 44 43 36
8 4 2 2 5 2 5 1 3 3 1 3 11 8 4 6 9 9 14 25 29 32 32 32 26 22 19 13 6 6 16 22 27 31 33 36 38 40 39 42 39 41 43 43
6 4 4 4 7 10 12 15 6 3 3 4 7 5 5 15 15 22 22 22 25 25 26 26 26 24 21 20 14 8 2 9 16 21 25 28 30 30 33 35 38 41 47 50
5 6 4 2 4 4 5 14 13 8 11 5 6 6 7 12 14 19 21 23 23 23 23 22 22 23 21 15 10 12 9 4 4 7 14 22 25 28 30 32 35 37 38 39
6 7 2 3 4 5 3 1 6 14 10 10 10 10 10 10 12 19 19 20 22 22 23 23 21 18 16 14 9 6 9 11 10 6 8 14 16 18 18 18 20 20 23 26
3 3 3 3 3 3 2 3 4 4 9 8 7 8 5 8 5 15 20 19 18 20 20 19 17 17 15 11 11 10 6 4 5 7 11 13 13 14 16 17 19 19 21 21
5 4 3 3 4 2 2 4 5 2 7 8 10 9 8 8 5 3 16 17 19 20 21 23 22 20 20 20 17 11 5 3 6 9 8 10 11 14 16 16 19 20 21 22
5 4 5 5 3 3 3 12 2 4 1 5 8 10 15 4 3 6 12 16 18 20 21 21 22 24 24 22 20 18 15 13 12 11 12 13 14 14 16 17 19 21 23 24
3 2 3 2 4 2 13 4 4 0 1 2 6 8 9 8 9 11 15 17 18 19 20 22 23 23 23 23 23 23 21 19 18 15 12 13 17 16 17 19 18 18 17 15
3 3 2 4 3 1 4 5 4 3 3 5 6 6 6 7 9 12 15 17 18 18 18 20 21 20 22 24 26 26 26 26 25 20 18 16 14 17 20 21 22 24 24 21
3 1 2 4 3 0 5 8 7 7 6 6 7 8 7 7 7 10 12 14 16 16 16 17 17 18 20 23 25 26 28 29 29 27 24 19 20 18 20 23 27 25 26 27
4 1 3 5 6 4 7 5 8 4 4 5 5 6 6 7 9 10 13 14 15 16 15 16 16 18 20 22 25 27 30 31 32 30 27 23 18 19 22 24 25 27 28 25
7 6 4 4 5 2 3 3 6 3 5 7 10 10 9 11 12 13 13 13 14 13 13 12 13 15 18 22 25 27 30 33 35 33 31 27 23 18 19 24 24 26 28 26
Wind_Direction
204 212 219 194 207 238 288 291 278 257 228 15 262 253 227 241 230 232 233 226 220 228 231 226 226 225 224 222 217 216 217 219 213 211 209 211 213 211 215 214 214 215 215 221
196 236 240 205 212 232 242 254 268 285 289 267 267 273 251 227 237 224 228 224 217 228 227 228 228 225 225 223 220 219 220 221 218 215 213 215 214 215 217 215 214 215 218 224
220 198 198 207 218 216 224 234 247 250 302 283 259 276 271 235 229 223 230 237 233 224 226 225 227 227 224 225 223 220 221 221 222 219 216 218 219 223 221 217 216 216 219 224
246 240 242 197 219 212 236 218 233 238 268 250 73 285 234 228 231 227 225 221 230 225 228 235 233 229 228 227 225 223 223 222 223 222 220 219 220 220 221 221 220 219 222 225
224 206 221 220 212 201 235 209 222 215 235 274 267 281 240 206 223 224 225 223 223 227 228 233 235 237 238 231 227 224 225 225 226 225 224 224 225 228 230 227 224 223 225 227
244 219 213 221 223 202 114 249 232 232 203 242 243 222 283 218 224 222 221 223 224 227 231 236 243 244 241 235 230 227 224 226 227 227 226 227 228 230 231 230 228 227 228 230
242 238 219 207 196 200 202 221 202 212 204 234 219 220 233 249 247 206 217 219 218 222 228 232 238 236 236 233 230 229 227 225 227 228 228 229 230 233 235 235 233 230 230 230
255 278 189 182 197 191 194 180 219 192 205 244 215 258 249 231 246 212 239 223 218 221 221 228 231 236 238 234 234 230 229 227 228 228 229 230 232 235 236 238 238 238 238 238
269 246 178 188 161 171 180 200 221 314 278 282 181 209 157 17 18 11 4 312 236 222 221 227 235 238 238 235 236 233 232 230 229 229 229 230 233 235 237 239 240 242 244 243
276 285 204 147 184 225 161 164 170 213 210 241 84 114 305 345 334 338 343 313 289 263 246 237 236 237 237 238 237 234 233 233 231 230 232 232 234 237 240 242 243 245 247 246
248 242 63 128 207 169 188 222 220 151 245 312 123 48 347 303 309 308 328 330 0 323 256 247 241 241 239 237 233 232 231 232 231 233 234 234 235 238 242 244 246 248 251 251
229 289 332 310 284 249 180 191 196 175 208 202 223 16 357 336 338 321 3 32 44 31 2 235 227 230 232 234 234 234 234 233 234 236 236 237 239 239 243 245 249 252 253 254
344 309 319 39 22 16 72 134 175 231 307 295 87 156 355 6 29 26 37 45 49 51 50 55 79 209 224 230 235 238 239 238 239 235 237 239 241 242 242 246 248 252 253 257
337 333 333 79 353 333 273 172 170 196 238 210 129 140 48 24 32 25 27 46 45 53 51 56 55 58 92 210 224 229 237 240 243 242 241 241 242 244 243 243 242 251 253 253
350 317 327 21 353 65 18 91 147 173 287 292 152 127 114 50 35 27 29 41 39 40 43 48 49 46 51 61 65 229 237 244 243 242 243 246 247 249 247 243 244 241 242 244
338 308 328 355 7 84 50 22 10 53 9 53 105 68 331 53 39 27 22 26 27 24 32 36 42 47 48 43 39 31 26 232 235 239 243 247 254 256 256 255 256 254 251 251
317 328 351 320 327 343 23 355 12 57 21 343 44 17 49 59 44 32 17 21 23 27 26 29 25 26 36 51 32 19 26 2 282 248 240 240 244 248 251 252 252 252 251 253
303 333 13 305 341 50 53 33 63 61 47 41 32 18 21 91 68 49 37 27 26 25 24 22 21 26 27 25 27 28 0 342 327 318 291 268 265 263 255 250 249 249 252 255
316 319 349 61 31 110 59 17 10 8 37 15 14 16 100 148 81 33 29 33 30 28 33 31 31 29 22 7 12 16 354 266 251 282 281 275 266 263 262 261 262 259 253 249
1 46 103 14 83 85 285 298 343 226 49 7 13 15 24 171 62 340 10 25 34 35 31 30 32 33 29 29 26 23 6 302 261 252 240 261 273 266 260 255 248 247 248 248
339 356 40 20 81 320 315 314 326 73 76 351 27 40 47 60 47 3 20 27 29 31 35 35 31 28 27 25 20 14 8 352 331 303 272 246 222 235 249 248 243 244 244 242
341 60 6 25 57 347 357 359 75 198 125 41 37 38 45 51 35 31 24 24 25 27 31 32 32 30 26 22 19 15 10 3 349 335 309 279 266 244 232 237 234 241 234 225
316 186 213 174 212 340 11 72 60 32 59 21 17 10 7 14 25 25 24 24 24 25 27 25 23 22 21 17 13 9 7 359 354 347 331 311 278 257 251 244 242 234 228 230
251 234 236 36 299 222 357 92 89 89 66 36 32 30 32 30 23 17 13 12 14 15 15 15 14 14 15 15 12 8 3 359 354 345 337 325 305 276 256 244 245 237 243 239
223 62 202 269 285 121 146 83 32 37 19 27 20 11 8 359 351 350 349 352 356 357 357 357 1 6 8 10 11 8 3 358 352 346 338 327 313 292 268 255 249 248 241 236
192 194 163 228 181 161 173 197 336 340 345 338 335 328 320 316 318 315 321 333 339 342 344 348 357 1 3 6 6 3 359 359 356 351 342 333 320 303 282 268 258 247 241 240
Height
1496 1497 1485 1493 1491 1490 1497 1499 1497 1484 1483 1490 1476 1471 1474 1473 1471 1471 1472 1472 1474 1478 1481 1485 1490 1495 1499 1505 1509 1513 1517 1521 1526 1530 1533 1537 1539 1543 1547 1550 1554 1558 1561 1563
1493 1481 1487 1490 1493 1495 1497 1499 1495 1489 1483 1487 1478 1471 1467 1467 1466 1467 1469 1469 1468 1472 1477 1480 1484 1488 1492 1498 1503 1508 1511 1516 1521 1525 1529 1532 1536 1539 1543 1547 1550 1553 1557 1560
1484 1475 1473 1484 1488 1490 1490 1495 1490 1492 1488 1483 1484 1462 1461 1457 1456 1458 1459 1461 1462 1463 1468 1474 1477 1480 1486 1491 1494 1500 1506 1510 1516 1521 1525 1529 1534 1536 1539 1541 1544 1548 1552 1555
1477 1474 1475 1478 1480 1489 1488 1477 1482 1487 1494 1488 1479 1456 1447 1453 1449 1449 1450 1453 1454 1457 1461 1466 1471 1474 1475 1479 1487 1494 1500 1504 1511 1515 1518 1522 1524 1527 1531 1535 1539 1543 1547 1551
1465 1468 1468 1469 1466 1477 1471 1477 1482 1486 1487 1489 1479 1490 1443 1441 1440 1435 1437 1443 1446 1447 1452 1458 1463 1464 1467 1475 1480 1487 1494 1498 1504 1507 1511 1516 1519 1523 1527 1530 1534 1538 1542 1545
1462 1463 1464 1458 1462 1467 1469 1478 1478 1481 1484 1483 1460 1483 1445 1433 1416 1420 1426 1431 1437 1440 1443 1449 1455 1459 1462 1468 1474 1479 1484 1488 1495 1500 1504 1508 1512 1516 1520 1524 1528 1531 1535 1538
1456 1451 1454 1456 1460 1465 1469 1477 1499 1483 1472 1458 1442 1461 1444 1417 1414 1411 1414 1419 1423 1432 1433 1439 1445 1450 1454 1457 1464 1470 1475 1479 1485 1491 1495 1499 1504 1509 1512 1517 1521 1524 1528 1530
1451 1435 1442 1443 1444 1451 1460 1466 1463 1459 1455 1434 1445 1450 1428 1414 1412 1409 1410 1413 1418 1422 1424 1428 1433 1440 1444 1449 1452 1459 1464 1470 1476 1481 1486 1491 1497 1501 1505 1509 1514 1517 1521 1525
1444 1434 1429 1434 1438 1445 1456 1461 1453 1459 1445 1442 1426 1430 1411 1414 1412 1413 1412 1414 1413 1414 1416 1419 1425 1430 1435 1441 1444 1449 1455 1461 1466 1471 1478 1484 1489 1493 1496 1502 1508 1512 1515 1520
1447 1432 1426 1430 1440 1442 1445 1446 1457 1459 1450 1421 1406 1417 1424 1421 1419 1419 1417 1416 1409 1404 1410 1415 1418 1422 1426 1432 1437 1441 1447 1451 1457 1465 1470 1476 1481 1486 1490 1496 1500 1505 1508 1514
1444 1436 1428 1432 1431 1430 1441 1446 1440 1440 1444 1423 1411 1432 1429 1431 1427 1425 1419 1417 1400 1401 1407 1412 1414 1417 1421 1427 1432 1435 1440 1446 1451 1456 1462 1467 1472 1478 1483 1488 1493 1498 1502 1506
1440 1434 1423 1424 1427 1429 1425 1426 1432 1439 1427 1429 1424 1443 1433 1431 1427 1426 1422 1414 1410 1411 1410 1410 1412 1415 1418 1423 1426 1430 1436 1442 1445 1451 1456 1460 1465 1471 1476 1480 1486 1491 1494 1497
1438 1429 1425 1425 1424 1422 1422 1422 1421 1424 1432 1416 1416 1441 1432 1428 1428 1425 1420 1414 1413 1413 1412 1408 1406 1410 1416 1421 1425 1428 1431 1437 1441 1446 1452 1455 1458 1462 1468 1473 1478 1481 1486 1488
1440 1437 1428 1428 1426 1427 1423 1424 1424 1426 1420 1424 1421 1430 1431 1430 1429 1426 1425 1418 1421 1416 1416 1410 1409 1414 1417 1420 1423 1426 1430 1434 1438 1443 1446 1449 1452 1456 1460 1465 1467 1471 1475 1477
1445 1438 1436 1434 1432 1431 1429 1427 1426 1425 1427 1417 1421 1424 1431 1432 1433 1435 1434 1425 1423 1421 1421 1418 1418 1420 1419 1419 1419 1424 1429 1433 1436 1439 1441 1443 1447 1450 1454 1457 1460 1463 1466 1468
1447 1440 1437 1432 1434 1434 1433 1436 1430 1429 1430 1427 1429 1433 1434 1438 1438 1434 1432 1431 1430 1428 1428 1429 1429 1426 1422 1422 1425 1428 1427 1430 1433 1435 1436 1438 1441 1444 1447 1451 1454 1456 1457 1456
1449 1446 1445 1434 1435 1429 1436 1447 1444 1446 1446 1439 1434 1442 1440 1442 1442 1440 1438 1437 1434 1434 1432 1430 1428 1428 1428 1429 1431 1432 1431 1431 1432 1431 1433 1435 1436 1438 1440 1442 1444 1446 1446 1449
1451 1447 1449 1445 1437 1445 1457 1458 1454 1453 1454 1452 1450 1447 1446 1447 1447 1445 1445 1443 1440 1436 1434 1433 1433 1431 1432 1433 1433 1429 1428 1431 1431 1430 1432 1434 1433 1432 1434 1436 1438 1440 1441 1445
1454 1450 1450 1452 1457 1452 1454 1457 1455 1452 1455 1452 1450 1449 1451 1450 1448 1447 1447 1446 1444 1442 1440 1438 1436 1435 1434 1432 1431 1430 1431 1431 1431 1430 1432 1431 1430 1431 1431 1432 1434 1436 1438 1439
1453 1453 1459 1468 1462 1465 1457 1453 1452 1452 1457 1457 1455 1453 1451 1450 1450 1453 1450 1448 1446 1444 1442 1439 1437 1437 1435 1432 1432 1430 1429 1429 1429 1427 1425 1425 1426 1427 1428 1429 1430 1432 1433 1436
1477 1476 1462 1460 1477 1465 1454 1452 1451 1456 1466 1460 1458 1457 1455 1455 1458 1456 1453 1451 1448 1446 1444 1442 1439 1436 1434 1433 1432 1429 1427 1425 1425 1424 1423 1423 1422 1424 1426 1426 1425 1427 1429 1430
1475 1487 1466 1478 1488 1474 1455 1451 1454 1461 1460 1460 1459 1458 1458 1457 1457 1456 1454 1452 1449 1447 1445 1443 1441 1438 1436 1434 1432 1429 1427 1425 1422 1420 1419 1419 1419 1419 1418 1420 1421 1422 1424 1425
1484 1474 1481 1472 1464 1461 1461 1461 1461 1460 1460 1460 1459 1458 1458 1458 1457 1456 1454 1453 1451 1448 1447 1445 1442 1440 1437 1434 1431 1428 1425 1422 1419 1418 1415 1414 1414 1414 1414 1414 1415 1416 1417 1419
1473 1471 1472 1471 1462 1461 1461 1460 1460 1460 1460 1459 1459 1458 1457 1457 1457 1456 1454 1453 1451 1449 1447 1445 1443 1441 1438 1435 1432 1429 1425 1422 1418 1414 1411 1409 1408 1408 1408 1408 1411 1411 1412 1413
1472 1472 1472 1468 1459 1459 1459 1459 1459 1459 1459 1458 1458 1457 1457 1456 1456 1455 1454 1452 1450 1448 1446 1444 1442 1440 1439 1437 1433 1430 1427 1422 1418 1414 1410 1407 1404 1404 1404 1404 1404 1406 1407 1408
1463 1462 1466 1464 1454 1455 1456 1456 1457 1458 1458 1457 1456 1456 1456 1455 1454 1453 1452 1451 1449 1447 1446 1444 1443 1441 1439 1437 1434 1431 1427 1422 1417 1413 1408 1404 1400 1398 1397 1398 1398 1399 1401 1403